[Iaude] MPEC B160: 2024 BL3 [a=1.11,e=0.40,i=20.0,H=24.4]
    mpec at marsden.cfa.harvard.edu 
    mpec at marsden.cfa.harvard.edu
       
    Tue Jan 30 20:28:46 EST 2024
    
    
  
M.P.E.C. 2024-B160                             Issued 2024 January 31, 01:26 UT
     The Minor Planet Electronic Circulars contain information on unusual
         minor planets, routine data on comets and natural satellites,
         and occasional editorial announcements.  They are published
    on behalf of Division F of the International Astronomical Union by the
          Minor Planet Center, Smithsonian Astrophysical Observatory,
                          Cambridge, MA 02138, U.S.A.
			  
             Prepared using the Tamkin Foundation Computer Network
                              MPC at CFA.HARVARD.EDU
            URL https://www.minorplanetcenter.net/    ISSN 1523-6714
                                    2024 BL3                                    
Observations:
     K24B03L  C2024 01 20.45041808 58 27.525-03 26 29.57         21.39GVEB160F51
     K24B03L  C2024 01 20.47821908 58 25.240-03 24 47.69         21.30GVEB160F51
     K24B03L*1C2024 01 30.28636508 34 48.155+19 11 45.13         19.15GVEB160G96
     K24B03L 1C2024 01 30.29211208 34 46.060+19 13 22.19         19.00GVEB160G96
     K24B03L 1C2024 01 30.29784408 34 43.961+19 14 58.99         18.89GVEB160G96
     K24B03L 1C2024 01 30.30358508 34 41.862+19 16 35.90         18.93GVEB160G96
     K24B03L KB2024 01 30.37876 08 34 12.888+19 37 35.58         18.9 GXEB160H36
     K24B03L KB2024 01 30.38453 08 34 10.838+19 39 13.39         19.0 GXEB160H36
     K24B03L KB2024 01 30.39028 08 34 08.791+19 40 51.35         19.0 GXEB160H36
     K24B03L 1C2024 01 30.39052908 34 09.793+19 41 12.80         18.99GVEB160G96
     K24B03L 1C2024 01 30.39082808 34 09.685+19 41 17.81         19.20GVEB160G96
     K24B03L 1C2024 01 30.39112708 34 09.566+19 41 22.96         18.98GVEB160G96
     K24B03L KC2024 01 30.74744608 32 16.25 +21 25 55.8          19.2 GXEB160L18
     K24B03L KC2024 01 30.75337 08 32 14.26 +21 27 39.2          19.3 GXEB160G02
     K24B03L KC2024 01 30.75623308 32 12.91 +21 28 38.4          19.0 GXEB160L18
     K24B03L KC2024 01 30.75879 08 32 12.28 +21 29 20.7          19.1 GXEB160G02
     K24B03L KC2024 01 30.76422 08 32 10.26 +21 31 00.8          19.1 GXEB160G02
     K24B03L KC2024 01 30.76497108 32 09.61 +21 31 19.5          19.4 GXEB160L18
     K24B03L KB2024 01 30.78970 08 32 00.49 +21 39 02.8          19.3 GXEB160M45
     K24B03L KB2024 01 30.79311 08 31 59.14 +21 40 06.5                XEB160M45
     K24B03L KB2024 01 30.79652 08 31 57.83 +21 41 09.5          19.0 GXEB160M45
     K24B03L KB2024 01 30.80853308 31 54.86 +21 44 44.2          19.1 GXEB160I93
     K24B03L KB2024 01 30.81339808 31 53.02 +21 46 15.0          19.2 GXEB160I93
     K24B03L KB2024 01 30.81814408 31 51.24 +21 47 43.9          19.0 GXEB160I93
     K24B03L KC2024 01 30.84313108 31 41.71 +21 55 32.5          18.8 GXEB160958
     K24B03L KC2024 01 30.84857808 31 39.65 +21 57 16.1          18.9 GXEB160958
     K24B03L IC2024 01 30.84966808 31 37.86 +21 57 37.3                XEB160595
     K24B03L KC2024 01 30.85136 08 31 36.91 +21 58 04.8          19.0 GVEB160G00
     K24B03L KC2024 01 30.85266108 31 37.91 +21 58 33.0          19.1 GXEB160958
     K24B03L KC2024 01 30.85349 08 31 36.01 +21 58 44.8          18.9 GVEB160G00
     K24B03L KC2024 01 30.85538108 31 36.94 +21 59 23.1          19.0 GXEB160958
     K24B03L KC2024 01 30.85627 08 31 34.89 +21 59 37.2          18.9 GVEB160G00
     K24B03L KC2024 01 30.85657208 31 35.13 +21 59 47.1          19.2 GXEB160595
     K24B03L KC2024 01 30.86347908 31 32.35 +22 01 56.6                XEB160595
     K24B03L KC2024 01 30.87038508 31 29.59 +22 04 06.3          18.9 GXEB160595
     K24B03L KC2024 01 30.93424008 31 03.76 +22 24 14.5          18.8 GVEB160104
     K24B03L KC2024 01 30.93906908 31 01.78 +22 25 46.1          19.1 GVEB160104
     K24B03L KC2024 01 30.94389808 30 59.75 +22 27 17.7          19.0 GVEB160104
     K24B03L KC2024 01 30.97243408 30 47.45 +22 36 17.2          18.8 GVEB160L01
     K24B03L KC2024 01 30.97346608 30 47.01 +22 36 36.7          18.9 GVEB160L01
     K24B03L KC2024 01 30.97450208 30 46.59 +22 36 56.3          19.0 GVEB160L01
     K24B03L KC2024 01 30.97554108 30 46.14 +22 37 16.5          18.8 GVEB160L01
     K24B03L KC2024 01 30.97658008 30 45.68 +22 37 36.3          18.7 GVEB160L01
Observer details:
104 San Marcello Pistoiese.  Observers P. Bacci, M. Maestripieri.  Measurers
    P. Bacci, L. Tesi, G. Fagioli.  0.60-m F4 Reflector + CCD.
595 Farra d'Isonzo.  Observers R. Basana, G. Panterotto, E. Pettarin.
    Measurer E. Pettarin.  0.61-m f/4.5 reflector + CCD.
958 Observatoire de Dax.  Observers P. Dupouy, J. B. de Vanssay.  Measurer P.
    Dupouy.  0.43-m f/2.7 Reflector + CCD.
F51 Pan-STARRS 1, Haleakala.  Observers J. Herman, T. Lowe, P. Minguez, A.
    Schultz, I. Smith.  Measurers K. Chambers, T. de Boer, J. Fairlamb, H.
    Gao, M. Huber, C.-C. Lin, E. Magnier, Y. Ramanjooloo, R. Wainscoat, R.
    Weryk.  1.8-m Ritchey-Chretien + CCD.
G00 AZM Martinsberg, Oed.  Observers M. Jaeger, E. Prosperi, S. Prosperi.
    Measurer M. Jaeger.  0.3-m f/4.0 reflector + CCD.
G02 KYSUCE Observatory, Kysucke Nove Mesto.  Observer M. Urbanik.  0.40-m
    f/6.8 Corrected Dall-Kirkham + CCD.
G96 Mt. Lemmon Survey.  Observer D. Rankin.  Measurers T. Beuden, V. F.
    Carvajal, D. Fay, J. B. Fazekas, D. C. Fuls, A. R. Gibbs, A. D. Grauer, H.
    Groeller, J. K. Hogan, R. A. Kowalski, S. M. Larson, G. J. Leonard, D.
    Rankin, R. L. Seaman, F. C. Shelly, K. W. Wierzchos.  1.5-m reflector +
    10K CCD.
H36 Sandlot Observatory, Scranton.  Observer G. Hug.  0.56-m f/4.8 reflector +
    CMO.
I93 St Pardon de Conques.  Observer F. Losse.  0.40-m f/3.7 reflector + CMO.
L01 Visnjan Observatory, Tican.  Observer K. Korlevic.  1.0-m f/2.9 reflector
    + CCD.
L18 QOS Observatory, Zalistsi.  Observers Y. V. Tanasiychuk, B. O. Basiev.
    Measurer A. M. Kozhukhov.  0.50-m f/3.8 reflector + CCD.
M45 Starhopper Observatory, Sfantu Gheorghe.  Observer F. Ursache.  0.41-m
    f/7.5 reflector + CMO.
Orbital elements:
2024 BL3                                                 Earth MOID = 0.0442 AU
Epoch 2023 Sept. 13.0 TT = JDT 2460200.5                MPC                     
M 182.15448              (2000.0)            P               Q                  
n   0.84196656     Peri.  107.25587     -0.50758349     +0.81966671             
a   1.1107240      Node   129.21291     -0.86143947     -0.47679066             
e   0.3987212      Incl.   20.04177     -0.01676443     -0.31751716             
P   1.17           H   24.49          G   0.15           U   8                  
Residuals in seconds of arc
240120 F51  0.0   0.1-    240130 G02  0.1+  0.2-    240130 958  0.2+  0.4+
240120 F51  0.0   0.1+    240130 G02  0.3+  0.5-    240130 G00  0.6-  0.1+
240130 G96  0.2+  0.1+    240130 L18  0.0   0.1-    240130 595  0.1+  0.3+
240130 G96  0.3+  0.1+    240130 M45  0.4+  0.0     240130 595  0.1-  0.1+
240130 G96  0.3+  0.1+    240130 M45  0.1+  0.3+    240130 595  0.1+  0.0
240130 G96  0.3+  0.1-    240130 M45  0.3+  0.1-    240130 104  0.2-  0.2-
240130 H36  0.3-  0.4+    240130 I93  0.1-  0.7+    240130 104  0.2+  0.1-
240130 H36  0.0   0.2+    240130 I93  0.0   0.6+    240130 104  0.0   0.1-
240130 H36  0.2+  0.2+    240130 I93  0.4+  0.8+    240130 L01  0.2-  0.0
240130 G96  0.0   0.1-    240130 958  0.1-  0.0     240130 L01  0.3-  0.1-
240130 G96  0.1+  0.2-    240130 958  0.8+  1.3+    240130 L01  0.1-  0.2-
240130 G96  0.1-  0.2-    240130 595  0.2-  0.0     240130 L01  0.3-  0.2+
240130 L18  0.5+  0.1+    240130 G00  0.3+  0.2-    240130 L01  0.6-  0.3+
240130 G02  0.4-  1.5-    240130 958  1.2-  1.4+
240130 L18  0.1-  0.4+    240130 G00  0.5-  0.1-
Ephemeris:
2024 BL3                 a,e,i = 1.11, 0.40, 20                  q = 0.6679
Date    TT    R. A. (2000) Decl.     Delta      r    Elong.  Phase     V
2024 01 01    09 02 12.8 -10 35 46   0.3448  1.2407   132.0    36.1    24.1
...
2024 01 16    09 01 41.1 -06 52 30   0.1955  1.1519   146.6    28.0    22.5
...
2024 01 24    08 53 49.9 +01 11 46   0.1229  1.1007   160.1    17.7    21.1
...
2024 01 30    08 36 16.2 +17 53 35   0.07572 1.0606   177.5     2.3    19.3
2024 01 31    08 30 37.9 +22 45 36   0.06920 1.0538   173.1     6.5    19.3
2024 02 01    08 23 20.8 +28 33 25   0.06337 1.0470   166.7    12.5    19.3
...
2024 02 07    04 31 10.8 +74 34 39   0.05339 1.0055   109.8    67.3    20.5
...
2024 02 15    22 08 55.9 +51 39 49   0.1007  0.9491    64.8   109.7    23.5
...
2024 03 01    21 37 04.7 +33 05 59   0.2253  0.8437    44.1   125.2    26.2
A. U. Tomatic                (C) Copyright 2024 MPC           M.P.E.C. 2024-B160
    
    
More information about the Iaude
mailing list